Time,TemperatureF,DewpointF,PressureIn,WindDirection,WindDirectionDegrees,WindSpeedMPH,WindSpeedGustMPH,Humidity,HourlyPrecipIn,Conditions,Clouds,dailyrainin,SoftwareType,DateUTC
2013-02-04 00:00:00,34.8,26.0,30.01,East,101,0.0,0.0,70,0.00,,,0.00,Wunderground v.1.15,2013-02-04 05:00:00,
2013-02-04 00:02:00,34.7,26.3,30.01,ESE,102,0.0,0.0,71,0.00,,,0.00,Wunderground v.1.15,2013-02-04 05:02:00,
2013-02-04 00:04:00,34.5,26.4,30.01,East,101,0.0,0.0,72,0.00,,,0.00,Wunderground v.1.15,2013-02-04 05:04:00,
2013-02-04 00:06:00,34.5,26.1,30.01,East,101,0.0,0.0,71,0.00,,,0.00,Wunderground v.1.15,2013-02-04 05:06:00,
2013-02-04 00:11:00,34.4,26.0,30.01,East,101,0.0,0.0,71,0.00,,,0.00,Wunderground v.1.15,2013-02-04 05:11:00,
2013-02-04 00:16:00,34.4,25.6,30.01,East,101,0.0,0.0,70,0.00,,,0.00,Wunderground v.1.15,2013-02-04 05:16:00,
2013-02-04 00:21:00,34.7,25.6,30.00,ESE,103,0.0,0.0,69,0.00,,,0.00,Wunderground v.1.15,2013-02-04 05:21:00,
2013-02-04 00:27:00,35.0,25.1,30.00,ESE,103,0.0,0.0,67,0.00,,,0.00,Wunderground v.1.15,2013-02-04 05:27:00,
2013-02-04 00:32:00,35.0,25.1,30.00,ESE,103,0.0,0.0,67,0.00,,,0.00,Wunderground v.1.15,2013-02-04 05:32:00,
2013-02-04 00:38:00,34.9,25.4,30.01,ESE,103,0.0,0.0,68,0.00,,,0.00,Wunderground v.1.15,2013-02-04 05:38:00,
2013-02-04 00:43:00,34.7,25.2,30.01,ESE,103,0.0,0.0,68,0.00,,,0.00,Wunderground v.1.15,2013-02-04 05:43:00,
2013-02-04 00:49:00,34.4,24.9,30.01,ESE,103,0.0,0.0,68,0.00,,,0.00,Wunderground v.1.15,2013-02-04 05:49:00,
2013-02-04 00:54:00,34.3,24.5,30.01,ESE,103,0.0,0.0,67,0.00,,,0.00,Wunderground v.1.15,2013-02-04 05:54:00,
2013-02-04 00:59:00,34.1,24.6,30.01,ESE,103,0.0,0.0,68,0.00,,,0.00,Wunderground v.1.15,2013-02-04 05:59:00,
2013-02-04 01:05:00,33.9,24.4,30.01,ESE,103,0.0,0.0,68,0.00,,,0.00,Wunderground v.1.15,2013-02-04 06:05:00,
2013-02-04 01:10:00,33.7,24.6,30.01,ESE,104,0.0,0.0,69,0.00,,,0.00,Wunderground v.1.15,2013-02-04 06:10:00,
2013-02-04 01:15:00,33.5,24.8,30.01,ESE,103,0.0,0.0,70,0.00,,,0.00,Wunderground v.1.15,2013-02-04 06:15:00,
2013-02-04 01:20:00,33.2,24.8,30.01,ESE,103,0.0,0.0,71,0.00,,,0.00,Wunderground v.1.15,2013-02-04 06:20:00,
2013-02-04 01:26:00,32.9,24.5,30.01,ESE,103,0.0,0.0,71,0.00,,,0.00,Wunderground v.1.15,2013-02-04 06:26:00,
2013-02-04 01:32:00,32.7,24.7,30.01,ESE,103,0.0,0.0,72,0.00,,,0.00,Wunderground v.1.15,2013-02-04 06:32:00,
2013-02-04 01:37:00,32.4,24.4,30.01,ESE,103,0.0,0.0,72,0.00,,,0.00,Wunderground v.1.15,2013-02-04 06:37:00,
2013-02-04 01:42:00,32.2,24.5,30.01,ESE,103,0.0,0.0,73,0.00,,,0.00,Wunderground v.1.15,2013-02-04 06:42:00,
2013-02-04 01:48:00,32.0,24.6,30.01,ESE,103,0.0,0.0,74,0.00,,,0.00,Wunderground v.1.15,2013-02-04 06:48:00,
2013-02-04 01:53:00,31.8,24.1,30.01,ESE,103,0.0,0.0,73,0.00,,,0.00,Wunderground v.1.15,2013-02-04 06:53:00,
2013-02-04 01:58:00,31.6,23.9,30.02,ESE,103,0.0,0.0,73,0.00,,,0.00,Wunderground v.1.15,2013-02-04 06:58:00,
2013-02-04 02:03:00,31.3,24.0,30.02,ESE,103,0.0,0.0,74,0.00,,,0.00,Wunderground v.1.15,2013-02-04 07:03:00,
2013-02-04 02:09:00,31.2,24.2,30.02,ESE,103,0.0,0.0,75,0.00,,,0.00,Wunderground v.1.15,2013-02-04 07:09:00,
2013-02-04 02:14:00,30.9,24.2,30.02,ESE,103,0.0,0.0,76,0.00,,,0.00,Wunderground v.1.15,2013-02-04 07:14:00,
2013-02-04 02:19:00,30.6,23.9,30.02,ESE,103,0.0,0.0,76,0.00,,,0.00,Wunderground v.1.15,2013-02-04 07:19:00,
2013-02-04 02:25:00,30.3,24.0,30.03,ESE,103,0.0,0.0,77,0.00,,,0.00,Wunderground v.1.15,2013-02-04 07:25:00,
2013-02-04 02:30:00,30.0,23.7,30.03,ESE,103,0.0,0.0,77,0.00,,,0.00,Wunderground v.1.15,2013-02-04 07:30:00,
2013-02-04 02:35:00,29.9,23.9,30.03,ESE,104,0.0,0.0,78,0.00,,,0.00,Wunderground v.1.15,2013-02-04 07:35:00,
2013-02-04 02:41:00,29.8,24.1,30.03,ESE,103,0.0,0.0,79,0.00,,,0.00,Wunderground v.1.15,2013-02-04 07:41:00,
2013-02-04 02:46:00,29.7,24.3,30.03,ESE,103,0.0,0.0,80,0.00,,,0.00,Wunderground v.1.15,2013-02-04 07:46:00,
2013-02-04 02:51:00,29.7,24.6,30.03,ESE,103,0.0,0.0,81,0.00,,,0.00,Wunderground v.1.15,2013-02-04 07:51:00,
2013-02-04 02:56:00,29.7,24.6,30.03,ESE,104,0.0,0.0,81,0.00,,,0.00,Wunderground v.1.15,2013-02-04 07:56:00,
2013-02-04 03:02:00,29.5,24.1,30.03,ESE,104,0.0,0.0,80,0.00,,,0.00,Wunderground v.1.15,2013-02-04 08:02:00,
2013-02-04 03:07:00,29.3,23.9,30.03,ESE,103,0.0,0.0,80,0.00,,,0.00,Wunderground v.1.15,2013-02-04 08:07:00,
2013-02-04 03:12:00,29.2,24.1,30.04,ESE,103,0.0,0.0,81,0.00,,,0.00,Wunderground v.1.15,2013-02-04 08:12:00,
2013-02-04 03:18:00,28.9,23.8,30.04,ESE,103,0.0,0.0,81,0.00,,,0.00,Wunderground v.1.15,2013-02-04 08:18:00,
2013-02-04 03:23:00,28.8,23.7,30.04,ESE,103,0.0,0.0,81,0.00,,,0.00,Wunderground v.1.15,2013-02-04 08:23:00,
2013-02-04 03:28:00,28.7,23.6,30.04,ESE,103,0.0,0.0,81,0.00,,,0.00,Wunderground v.1.15,2013-02-04 08:28:00,
2013-02-04 03:34:00,28.7,23.6,30.03,ESE,103,0.0,0.0,81,0.00,,,0.00,Wunderground v.1.15,2013-02-04 08:34:00,
2013-02-04 03:39:00,28.6,23.5,30.03,ESE,103,0.0,0.0,81,0.00,,,0.00,Wunderground v.1.15,2013-02-04 08:39:00,
2013-02-04 03:44:00,28.6,23.5,30.04,ESE,103,0.0,0.0,81,0.00,,,0.00,Wunderground v.1.15,2013-02-04 08:44:00,
2013-02-04 03:49:00,28.5,23.4,30.04,ESE,103,0.0,0.0,81,0.00,,,0.00,Wunderground v.1.15,2013-02-04 08:49:00,
2013-02-04 03:55:00,28.3,23.2,30.05,ESE,103,0.0,0.0,81,0.00,,,0.00,Wunderground v.1.15,2013-02-04 08:55:00,
2013-02-04 04:00:00,28.2,23.1,30.05,ESE,103,0.0,0.0,81,0.00,,,0.00,Wunderground v.1.15,2013-02-04 09:00:00,
2013-02-04 04:05:00,28.1,23.3,30.05,ESE,103,0.0,0.0,82,0.00,,,0.00,Wunderground v.1.15,2013-02-04 09:05:00,
2013-02-04 04:11:00,27.9,23.1,30.05,ESE,103,0.0,0.0,82,0.00,,,0.00,Wunderground v.1.15,2013-02-04 09:11:00,
2013-02-04 04:16:00,27.9,23.1,30.05,ESE,103,0.0,0.0,82,0.00,,,0.00,Wunderground v.1.15,2013-02-04 09:16:00,
2013-02-04 04:21:00,27.9,23.4,30.05,ESE,103,0.0,0.0,83,0.00,,,0.00,Wunderground v.1.15,2013-02-04 09:21:00,
2013-02-04 04:26:00,27.9,23.4,30.05,ESE,103,0.0,0.0,83,0.00,,,0.00,Wunderground v.1.15,2013-02-04 09:26:00,
2013-02-04 04:32:00,27.8,23.3,30.05,ESE,103,0.0,0.0,83,0.00,,,0.00,Wunderground v.1.15,2013-02-04 09:32:00,
2013-02-04 04:37:00,27.7,23.2,30.05,ESE,103,0.0,0.0,83,0.00,,,0.00,Wunderground v.1.15,2013-02-04 09:37:00,
2013-02-04 04:42:00,27.5,23.0,30.05,ESE,103,0.0,0.0,83,0.00,,,0.00,Wunderground v.1.15,2013-02-04 09:42:00,
2013-02-04 04:48:00,27.5,23.3,30.05,ESE,103,0.0,0.0,84,0.00,,,0.00,Wunderground v.1.15,2013-02-04 09:48:00,
2013-02-04 04:53:00,27.5,23.3,30.05,ESE,104,0.0,0.0,84,0.00,,,0.00,Wunderground v.1.15,2013-02-04 09:53:00,
2013-02-04 04:58:00,27.5,23.3,30.06,ESE,103,0.0,0.0,84,0.00,,,0.00,Wunderground v.1.15,2013-02-04 09:58:00,
2013-02-04 05:04:00,27.5,23.3,30.06,ESE,103,0.0,0.0,84,0.00,,,0.00,Wunderground v.1.15,2013-02-04 10:04:00,
2013-02-04 05:09:00,27.4,23.2,30.06,ESE,103,0.0,0.0,84,0.00,,,0.00,Wunderground v.1.15,2013-02-04 10:09:00,
2013-02-04 05:14:00,27.3,23.1,30.06,ESE,104,0.0,0.0,84,0.00,,,0.00,Wunderground v.1.15,2013-02-04 10:14:00,
2013-02-04 05:19:00,27.2,23.0,30.07,ESE,103,0.0,0.0,84,0.00,,,0.00,Wunderground v.1.15,2013-02-04 10:19:00,
2013-02-04 05:25:00,27.1,22.9,30.06,ESE,103,0.0,0.0,84,0.00,,,0.00,Wunderground v.1.15,2013-02-04 10:25:00,
2013-02-04 05:30:00,27.1,22.9,30.06,ESE,103,0.0,0.0,84,0.00,,,0.00,Wunderground v.1.15,2013-02-04 10:30:00,
2013-02-04 05:35:00,27.1,23.2,30.07,ESE,103,0.0,0.0,85,0.00,,,0.00,Wunderground v.1.15,2013-02-04 10:35:00,
2013-02-04 05:40:00,27.1,23.2,30.07,ESE,103,0.0,0.0,85,0.00,,,0.00,Wunderground v.1.15,2013-02-04 10:40:00,
2013-02-04 05:46:00,27.0,23.1,30.07,ESE,103,0.0,0.0,85,0.00,,,0.00,Wunderground v.1.15,2013-02-04 10:46:00,
2013-02-04 05:51:00,26.9,23.0,30.08,ESE,104,0.0,0.0,85,0.00,,,0.00,Wunderground v.1.15,2013-02-04 10:51:00,
2013-02-04 05:57:00,26.8,22.9,30.08,ESE,103,0.0,0.0,85,0.00,,,0.00,Wunderground v.1.15,2013-02-04 10:57:00,
2013-02-04 06:02:00,26.8,22.9,30.08,ESE,103,0.0,0.0,85,0.00,,,0.00,Wunderground v.1.15,2013-02-04 11:02:00,
2013-02-04 06:07:00,26.9,23.3,30.08,ESE,103,0.0,0.0,86,0.00,,,0.00,Wunderground v.1.15,2013-02-04 11:07:00,
2013-02-04 06:13:00,27.1,23.5,30.09,ESE,103,0.0,0.0,86,0.00,,,0.00,Wunderground v.1.15,2013-02-04 11:13:00,
2013-02-04 06:18:00,27.1,23.5,30.09,ESE,103,0.0,0.0,86,0.00,,,0.00,Wunderground v.1.15,2013-02-04 11:18:00,
2013-02-04 06:24:00,27.3,23.7,30.09,ESE,103,0.0,0.0,86,0.00,,,0.00,Wunderground v.1.15,2013-02-04 11:24:00,
2013-02-04 06:29:00,27.4,23.8,30.09,ESE,103,0.0,0.0,86,0.00,,,0.00,Wunderground v.1.15,2013-02-04 11:29:00,
2013-02-04 06:35:00,27.6,24.0,30.09,ESE,103,0.0,0.0,86,0.00,,,0.00,Wunderground v.1.15,2013-02-04 11:35:00,
2013-02-04 06:40:00,27.7,23.8,30.09,ESE,103,0.0,0.0,85,0.00,,,0.00,Wunderground v.1.15,2013-02-04 11:40:00,
2013-02-04 06:45:00,27.7,23.8,30.10,ESE,103,0.0,0.0,85,0.00,,,0.00,Wunderground v.1.15,2013-02-04 11:45:00,
2013-02-04 06:51:00,27.8,23.9,30.10,ESE,103,0.0,0.0,85,0.00,,,0.00,Wunderground v.1.15,2013-02-04 11:51:00,
2013-02-04 06:56:00,27.8,23.9,30.10,ESE,103,0.0,0.0,85,0.00,,,0.00,Wunderground v.1.15,2013-02-04 11:56:00,
2013-02-04 07:02:00,27.9,24.0,30.10,ESE,103,0.0,0.0,85,0.00,,,0.00,Wunderground v.1.15,2013-02-04 12:02:00,
2013-02-04 07:07:00,27.9,24.0,30.10,ESE,103,0.0,0.0,85,0.00,,,0.00,Wunderground v.1.15,2013-02-04 12:07:00,
2013-02-04 07:12:00,27.9,24.0,30.10,ESE,103,0.0,0.0,85,0.00,,,0.00,Wunderground v.1.15,2013-02-04 12:12:00,
2013-02-04 07:18:00,28.0,24.1,30.10,ESE,103,0.0,0.0,85,0.00,,,0.00,Wunderground v.1.15,2013-02-04 12:18:00,
2013-02-04 07:23:00,28.1,24.2,30.10,ESE,103,0.0,0.0,85,0.00,,,0.00,Wunderground v.1.15,2013-02-04 12:23:00,
2013-02-04 07:28:00,28.2,24.3,30.10,ESE,103,0.0,0.0,85,0.00,,,0.00,Wunderground v.1.15,2013-02-04 12:28:00,
2013-02-04 07:34:00,28.2,24.3,30.11,ESE,104,0.0,0.0,85,0.00,,,0.00,Wunderground v.1.15,2013-02-04 12:34:00,
2013-02-04 07:39:00,28.3,24.1,30.10,ESE,103,0.0,0.0,84,0.00,,,0.00,Wunderground v.1.15,2013-02-04 12:39:00,
2013-02-04 07:44:00,28.4,24.5,30.11,ESE,103,0.0,0.0,85,0.00,,,0.00,Wunderground v.1.15,2013-02-04 12:44:00,
2013-02-04 07:50:00,28.5,24.3,30.11,ESE,103,0.0,0.0,84,0.00,,,0.00,Wunderground v.1.15,2013-02-04 12:50:00,
2013-02-04 07:55:00,28.7,24.5,30.11,ESE,103,0.0,0.0,84,0.00,,,0.00,Wunderground v.1.15,2013-02-04 12:55:00,
2013-02-04 08:00:00,28.9,24.7,30.11,ESE,103,0.0,0.0,84,0.00,,,0.00,Wunderground v.1.15,2013-02-04 13:00:00,
2013-02-04 08:06:00,29.2,25.0,30.12,ESE,103,0.0,0.0,84,0.00,,,0.00,Wunderground v.1.15,2013-02-04 13:06:00,
2013-02-04 08:11:00,29.5,25.3,30.13,ESE,103,0.0,0.0,84,0.00,,,0.00,Wunderground v.1.15,2013-02-04 13:11:00,
2013-02-04 08:16:00,29.8,25.3,30.13,ESE,104,0.0,0.0,83,0.00,,,0.00,Wunderground v.1.15,2013-02-04 13:16:00,
2013-02-04 08:21:00,30.1,25.6,30.13,ESE,103,0.0,0.0,83,0.00,,,0.00,Wunderground v.1.15,2013-02-04 13:21:00,
2013-02-04 08:27:00,30.7,25.9,30.13,ESE,103,0.0,0.0,82,0.00,,,0.00,Wunderground v.1.15,2013-02-04 13:27:00,
2013-02-04 08:32:00,31.3,26.4,30.14,ESE,103,0.0,0.0,82,0.00,,,0.00,Wunderground v.1.15,2013-02-04 13:32:00,
2013-02-04 08:37:00,31.9,27.0,30.14,ESE,104,0.0,0.0,82,0.00,,,0.00,Wunderground v.1.15,2013-02-04 13:37:00,
2013-02-04 08:42:00,32.5,26.4,30.14,ESE,103,0.0,0.0,78,0.00,,,0.00,Wunderground v.1.15,2013-02-04 13:42:00,
2013-02-04 08:48:00,33.3,24.6,30.14,East,83,0.0,0.0,70,0.00,,,0.00,Wunderground v.1.15,2013-02-04 13:48:00,
2013-02-04 08:53:00,34.0,24.2,30.14,East,86,0.0,0.0,67,0.00,,,0.00,Wunderground v.1.15,2013-02-04 13:53:00,
2013-02-04 08:58:00,34.6,23.7,30.15,NE,56,0.0,1.0,64,0.00,,,0.00,Wunderground v.1.15,2013-02-04 13:58:00,
2013-02-04 09:04:00,35.1,23.4,30.14,NE,41,0.0,1.0,62,0.00,,,0.00,Wunderground v.1.15,2013-02-04 14:04:00,
2013-02-04 09:09:00,35.5,23.0,30.14,WSW,238,0.0,0.0,60,0.00,,,0.00,Wunderground v.1.15,2013-02-04 14:09:00,
2013-02-04 09:14:00,35.9,23.4,30.14,WSW,238,0.0,0.0,60,0.00,,,0.00,Wunderground v.1.15,2013-02-04 14:14:00,
2013-02-04 09:20:00,36.3,23.3,30.14,NW,309,0.0,0.0,59,0.00,,,0.00,Wunderground v.1.15,2013-02-04 14:20:00,
2013-02-04 09:25:00,36.6,23.6,30.14,SW,232,0.0,1.0,59,0.00,,,0.00,Wunderground v.1.15,2013-02-04 14:25:00,
2013-02-04 09:30:00,36.8,22.1,30.14,ENE,65,0.0,1.0,55,0.00,,,0.00,Wunderground v.1.15,2013-02-04 14:30:00,
2013-02-04 09:35:00,36.9,22.2,30.14,ENE,61,0.0,1.0,55,0.00,,,0.00,Wunderground v.1.15,2013-02-04 14:35:00,
2013-02-04 09:41:00,37.3,22.2,30.14,NE,44,0.0,0.0,54,0.00,,,0.00,Wunderground v.1.15,2013-02-04 14:41:00,
2013-02-04 09:46:00,37.7,22.1,30.15,West,267,0.0,0.0,53,0.00,,,0.00,Wunderground v.1.15,2013-02-04 14:46:00,
2013-02-04 09:51:00,38.0,22.4,30.15,NNE,30,0.0,0.0,53,0.00,,,0.00,Wunderground v.1.15,2013-02-04 14:51:00,
2013-02-04 09:58:00,38.3,22.2,30.15,North,358,0.0,0.0,52,0.00,,,0.00,Wunderground v.1.15,2013-02-04 14:58:00,
2013-02-04 10:03:00,38.5,21.9,30.14,West,278,0.0,0.0,51,0.00,,,0.00,Wunderground v.1.15,2013-02-04 15:03:00,
2013-02-04 10:08:00,38.5,22.4,30.14,WNW,291,0.0,0.0,52,0.00,,,0.00,Wunderground v.1.15,2013-02-04 15:08:00,
2013-02-04 10:14:00,38.6,22.0,30.14,WNW,291,0.0,0.0,51,0.00,,,0.00,Wunderground v.1.15,2013-02-04 15:14:00,
2013-02-04 10:19:00,38.7,22.1,30.15,East,96,0.0,0.0,51,0.00,,,0.00,Wunderground v.1.15,2013-02-04 15:19:00,
2013-02-04 10:24:00,38.9,22.8,30.15,NNE,27,0.0,0.0,52,0.00,,,0.00,Wunderground v.1.15,2013-02-04 15:24:00,
2013-02-04 10:30:00,38.9,21.3,30.15,East,90,0.0,0.0,49,0.00,,,0.00,Wunderground v.1.15,2013-02-04 15:30:00,
2013-02-04 10:35:00,39.0,22.4,30.15,West,259,0.0,0.0,51,0.00,,,0.00,Wunderground v.1.15,2013-02-04 15:35:00,
2013-02-04 10:40:00,39.3,22.2,30.16,West,259,0.0,0.0,50,0.00,,,0.00,Wunderground v.1.15,2013-02-04 15:40:00,
2013-02-04 10:45:00,39.6,22.0,30.15,West,259,0.0,0.0,49,0.00,,,0.00,Wunderground v.1.15,2013-02-04 15:45:00,
2013-02-04 10:51:00,39.8,22.7,30.16,West,266,0.0,0.0,50,0.00,,,0.00,Wunderground v.1.15,2013-02-04 15:51:00,
2013-02-04 10:56:00,40.5,22.3,30.16,East,92,0.0,0.0,48,0.00,,,0.00,Wunderground v.1.15,2013-02-04 15:56:00,
2013-02-04 11:02:00,40.8,22.1,30.16,ENE,60,0.0,1.0,47,0.00,,,0.00,Wunderground v.1.15,2013-02-04 16:02:00,
2013-02-04 11:07:00,41.2,22.5,30.16,NE,53,0.0,1.0,47,0.00,,,0.00,Wunderground v.1.15,2013-02-04 16:07:00,
2013-02-04 11:13:00,41.5,22.2,30.16,ENE,67,0.0,1.0,46,0.00,,,0.00,Wunderground v.1.15,2013-02-04 16:13:00,
2013-02-04 11:18:00,41.8,22.5,30.15,WSW,241,1.0,2.0,46,0.00,,,0.00,Wunderground v.1.15,2013-02-04 16:18:00,
2013-02-04 11:24:00,41.9,22.6,30.15,NNE,14,1.0,1.0,46,0.00,,,0.00,Wunderground v.1.15,2013-02-04 16:24:00,
2013-02-04 11:29:00,42.5,23.2,30.14,WSW,256,0.0,1.0,46,0.00,,,0.00,Wunderground v.1.15,2013-02-04 16:29:00,
2013-02-04 11:34:00,42.8,22.9,30.14,East,83,0.0,1.0,45,0.00,,,0.00,Wunderground v.1.15,2013-02-04 16:34:00,
2013-02-04 11:39:00,43.1,23.2,30.14,East,84,0.0,1.0,45,0.00,,,0.00,Wunderground v.1.15,2013-02-04 16:39:00,
2013-02-04 11:45:00,43.3,23.4,30.14,NNW,333,0.0,1.0,45,0.00,,,0.00,Wunderground v.1.15,2013-02-04 16:45:00,
2013-02-04 11:50:00,43.5,21.9,30.13,WNW,283,0.0,0.0,42,0.00,,,0.00,Wunderground v.1.15,2013-02-04 16:50:00,
2013-02-04 11:55:00,43.6,22.0,30.13,SE,128,0.0,0.0,42,0.00,,,0.00,Wunderground v.1.15,2013-02-04 16:55:00,
2013-02-04 12:01:00,44.1,22.4,30.14,West,264,0.0,1.0,42,0.00,,,0.00,Wunderground v.1.15,2013-02-04 17:01:00,
2013-02-04 12:06:00,44.7,23.0,30.13,West,267,0.0,1.0,42,0.00,,,0.00,Wunderground v.1.15,2013-02-04 17:06:00,
2013-02-04 12:11:00,45.0,23.8,30.13,WSW,255,0.0,1.0,43,0.00,,,0.00,Wunderground v.1.15,2013-02-04 17:11:00,
2013-02-04 12:17:00,45.2,22.3,30.12,NE,40,0.0,1.0,40,0.00,,,0.00,Wunderground v.1.15,2013-02-04 17:17:00,
2013-02-04 12:22:00,45.3,22.4,30.13,WSW,257,0.0,1.0,40,0.00,,,0.00,Wunderground v.1.15,2013-02-04 17:22:00,
2013-02-04 12:28:00,45.7,22.1,30.12,NE,42,0.0,1.0,39,0.00,,,0.00,Wunderground v.1.15,2013-02-04 17:28:00,
2013-02-04 12:34:00,45.9,22.9,30.11,NNE,33,0.0,1.0,40,0.00,,,0.00,Wunderground v.1.15,2013-02-04 17:34:00,
2013-02-04 12:39:00,46.1,23.7,30.11,WSW,250,0.0,1.0,41,0.00,,,0.00,Wunderground v.1.15,2013-02-04 17:39:00,
2013-02-04 12:44:00,46.4,23.9,30.11,SW,222,0.0,1.0,41,0.00,,,0.00,Wunderground v.1.15,2013-02-04 17:44:00,
2013-02-04 12:50:00,46.9,23.2,30.10,WSW,248,0.0,0.0,39,0.00,,,0.00,Wunderground v.1.15,2013-02-04 17:50:00,
2013-02-04 12:55:00,47.2,24.1,30.09,West,276,0.0,0.0,40,0.00,,,0.00,Wunderground v.1.15,2013-02-04 17:55:00,
2013-02-04 13:00:00,47.4,23.7,30.09,WSW,243,0.0,0.0,39,0.00,,,0.00,Wunderground v.1.15,2013-02-04 18:00:00,
2013-02-04 13:06:00,47.6,22.6,30.08,West,281,0.0,1.0,37,0.00,,,0.00,Wunderground v.1.15,2013-02-04 18:06:00,
2013-02-04 13:11:00,47.0,23.3,30.08,WNW,283,0.0,0.0,39,0.00,,,0.00,Wunderground v.1.15,2013-02-04 18:11:00,
2013-02-04 13:16:00,46.9,23.2,30.07,WSW,252,0.0,0.0,39,0.00,,,0.00,Wunderground v.1.15,2013-02-04 18:16:00,
2013-02-04 13:22:00,47.1,22.8,30.07,ESE,113,0.0,1.0,38,0.00,,,0.00,Wunderground v.1.15,2013-02-04 18:22:00,
2013-02-04 13:27:00,47.5,23.1,30.07,ESE,112,0.0,1.0,38,0.00,,,0.00,Wunderground v.1.15,2013-02-04 18:27:00,
2013-02-04 13:32:00,47.6,23.2,30.07,SE,131,0.0,1.0,38,0.00,,,0.00,Wunderground v.1.15,2013-02-04 18:32:00,
2013-02-04 13:38:00,47.9,23.5,30.07,West,276,0.0,1.0,38,0.00,,,0.00,Wunderground v.1.15,2013-02-04 18:38:00,
2013-02-04 13:43:00,48.2,23.7,30.06,NE,56,0.0,1.0,38,0.00,,,0.00,Wunderground v.1.15,2013-02-04 18:43:00,
2013-02-04 13:48:00,48.1,23.0,30.06,SW,218,0.0,1.0,37,0.00,,,0.00,Wunderground v.1.15,2013-02-04 18:48:00,
2013-02-04 13:53:00,48.0,23.6,30.06,SW,217,0.0,1.0,38,0.00,,,0.00,Wunderground v.1.15,2013-02-04 18:53:00,
2013-02-04 13:59:00,47.8,23.4,30.06,SW,218,0.0,1.0,38,0.00,,,0.00,Wunderground v.1.15,2013-02-04 18:59:00,
2013-02-04 14:04:00,47.6,23.2,30.06,SW,217,0.0,0.0,38,0.00,,,0.00,Wunderground v.1.15,2013-02-04 19:04:00,
2013-02-04 14:10:00,47.6,25.0,30.07,SW,224,0.0,0.0,41,0.00,,,0.00,Wunderground v.1.15,2013-02-04 19:10:00,
2013-02-04 14:15:00,47.9,22.8,30.07,West,271,0.0,0.0,37,0.00,,,0.00,Wunderground v.1.15,2013-02-04 19:15:00,
2013-02-04 14:20:00,48.1,23.0,30.07,WNW,296,0.0,1.0,37,0.00,,,0.00,Wunderground v.1.15,2013-02-04 19:20:00,
2013-02-04 14:26:00,48.5,24.6,30.07,West,259,0.0,1.0,39,0.00,,,0.00,Wunderground v.1.15,2013-02-04 19:26:00,
2013-02-04 14:31:00,48.7,24.2,30.07,West,259,0.0,1.0,38,0.00,,,0.00,Wunderground v.1.15,2013-02-04 19:31:00,
2013-02-04 14:36:00,49.0,24.5,30.07,West,280,0.0,1.0,38,0.00,,,0.00,Wunderground v.1.15,2013-02-04 19:36:00,
2013-02-04 14:42:00,49.2,24.0,30.06,WNW,294,0.0,0.0,37,0.00,,,0.00,Wunderground v.1.15,2013-02-04 19:42:00,
2013-02-04 14:47:00,49.4,24.2,30.06,WSW,258,0.0,0.0,37,0.00,,,0.00,Wunderground v.1.15,2013-02-04 19:47:00,
2013-02-04 14:52:00,49.7,24.5,30.06,WSW,250,0.0,1.0,37,0.00,,,0.00,Wunderground v.1.15,2013-02-04 19:52:00,
2013-02-04 14:58:00,49.8,23.9,30.05,WSW,243,0.0,1.0,36,0.00,,,0.00,Wunderground v.1.15,2013-02-04 19:58:00,
2013-02-04 15:03:00,49.9,24.0,30.04,West,266,0.0,1.0,36,0.00,,,0.00,Wunderground v.1.15,2013-02-04 20:03:00,
2013-02-04 15:09:00,49.8,24.5,30.04,West,274,0.0,1.0,37,0.00,,,0.00,Wunderground v.1.15,2013-02-04 20:09:00,
2013-02-04 15:14:00,49.7,24.5,30.04,WNW,288,0.0,0.0,37,0.00,,,0.00,Wunderground v.1.15,2013-02-04 20:14:00,
2013-02-04 15:19:00,49.7,23.8,30.05,WNW,300,0.0,1.0,36,0.00,,,0.00,Wunderground v.1.15,2013-02-04 20:19:00,
2013-02-04 15:25:00,49.7,25.1,30.05,East,79,0.0,2.0,38,0.00,,,0.00,Wunderground v.1.15,2013-02-04 20:25:00,
2013-02-04 15:31:00,49.8,25.2,30.05,West,270,0.0,0.0,38,0.00,,,0.00,Wunderground v.1.15,2013-02-04 20:31:00,
2013-02-04 15:36:00,49.7,24.5,30.05,WNW,285,0.0,1.0,37,0.00,,,0.00,Wunderground v.1.15,2013-02-04 20:36:00,
2013-02-04 15:41:00,49.7,24.5,30.05,West,262,0.0,0.0,37,0.00,,,0.00,Wunderground v.1.15,2013-02-04 20:41:00,
2013-02-04 15:47:00,49.7,25.1,30.05,West,266,0.0,1.0,38,0.00,,,0.00,Wunderground v.1.15,2013-02-04 20:47:00,
2013-02-04 15:52:00,49.7,24.5,30.04,WNW,298,0.0,0.0,37,0.00,,,0.00,Wunderground v.1.15,2013-02-04 20:52:00,
2013-02-04 15:57:00,49.7,24.5,30.04,WNW,285,0.0,1.0,37,0.00,,,0.00,Wunderground v.1.15,2013-02-04 20:57:00,
2013-02-04 16:03:00,49.5,24.3,30.04,NW,309,0.0,0.0,37,0.00,,,0.00,Wunderground v.1.15,2013-02-04 21:03:00,
2013-02-04 16:08:00,49.4,25.4,30.04,WSW,253,0.0,1.0,39,0.00,,,0.00,Wunderground v.1.15,2013-02-04 21:08:00,
2013-02-04 16:13:00,49.2,24.6,30.03,SW,231,0.0,0.0,38,0.00,,,0.00,Wunderground v.1.15,2013-02-04 21:13:00,
2013-02-04 16:19:00,49.2,25.9,30.03,NE,34,0.0,1.0,40,0.00,,,0.00,Wunderground v.1.15,2013-02-04 21:19:00,
2013-02-04 16:24:00,49.1,25.2,30.03,East,93,0.0,1.0,39,0.00,,,0.00,Wunderground v.1.15,2013-02-04 21:24:00,
2013-02-04 16:29:00,49.0,25.1,30.03,NNW,333,0.0,1.0,39,0.00,,,0.00,Wunderground v.1.15,2013-02-04 21:29:00,
2013-02-04 16:35:00,48.9,25.0,30.03,NW,321,0.0,0.0,39,0.00,,,0.00,Wunderground v.1.15,2013-02-04 21:35:00,
2013-02-04 16:40:00,48.8,24.9,30.03,West,276,0.0,1.0,39,0.00,,,0.00,Wunderground v.1.15,2013-02-04 21:40:00,
2013-02-04 16:45:00,48.7,24.8,30.03,WNW,295,0.0,2.0,39,0.00,,,0.00,Wunderground v.1.15,2013-02-04 21:45:00,
2013-02-04 16:50:00,48.6,25.9,30.03,WNW,296,0.0,0.0,41,0.00,,,0.00,Wunderground v.1.15,2013-02-04 21:50:00,
2013-02-04 16:55:00,48.4,25.8,30.03,NW,310,0.0,1.0,41,0.00,,,0.00,Wunderground v.1.15,2013-02-04 21:55:00,
2013-02-04 17:01:00,48.2,26.2,30.02,ESE,117,0.0,0.0,42,0.00,,,0.00,Wunderground v.1.15,2013-02-04 22:01:00,
2013-02-04 17:06:00,48.0,26.0,30.02,WNW,288,0.0,1.0,42,0.00,,,0.00,Wunderground v.1.15,2013-02-04 22:06:00,
2013-02-04 17:12:00,47.9,26.5,30.02,NW,308,0.0,1.0,43,0.00,,,0.00,Wunderground v.1.15,2013-02-04 22:12:00,
2013-02-04 17:17:00,47.7,26.8,30.02,NW,308,0.0,1.0,44,0.00,,,0.00,Wunderground v.1.15,2013-02-04 22:17:00,
2013-02-04 17:22:00,47.6,26.2,30.02,WNW,300,0.0,0.0,43,0.00,,,0.00,Wunderground v.1.15,2013-02-04 22:22:00,
2013-02-04 17:28:00,47.6,26.2,30.02,WNW,283,0.0,2.0,43,0.00,,,0.00,Wunderground v.1.15,2013-02-04 22:28:00,
2013-02-04 17:33:00,47.4,26.0,30.02,WSW,250,0.0,0.0,43,0.00,,,0.00,Wunderground v.1.15,2013-02-04 22:33:00,
2013-02-04 17:39:00,47.3,25.3,30.02,West,278,0.0,1.0,42,0.00,,,0.00,Wunderground v.1.15,2013-02-04 22:39:00,
2013-02-04 17:44:00,47.2,25.8,30.02,West,280,0.0,0.0,43,0.00,,,0.00,Wunderground v.1.15,2013-02-04 22:44:00,
2013-02-04 17:49:00,46.9,25.5,30.02,West,280,0.0,0.0,43,0.00,,,0.00,Wunderground v.1.15,2013-02-04 22:49:00,
2013-02-04 17:55:00,46.7,25.9,30.02,West,278,0.0,0.0,44,0.00,,,0.00,Wunderground v.1.15,2013-02-04 22:55:00,
2013-02-04 18:00:00,46.6,25.8,30.02,West,278,0.0,0.0,44,0.00,,,0.00,Wunderground v.1.15,2013-02-04 23:00:00,
2013-02-04 18:05:00,46.4,25.6,30.02,West,278,0.0,0.0,44,0.00,,,0.00,Wunderground v.1.15,2013-02-04 23:05:00,
2013-02-04 18:11:00,46.2,26.5,30.02,West,278,0.0,0.0,46,0.00,,,0.00,Wunderground v.1.15,2013-02-04 23:11:00,
2013-02-04 18:16:00,46.0,26.4,30.02,West,278,0.0,0.0,46,0.00,,,0.00,Wunderground v.1.15,2013-02-04 23:16:00,
2013-02-04 18:21:00,46.0,25.8,30.02,West,278,0.0,0.0,45,0.00,,,0.00,Wunderground v.1.15,2013-02-04 23:21:00,
2013-02-04 18:27:00,45.9,26.3,30.02,West,278,0.0,0.0,46,0.00,,,0.00,Wunderground v.1.15,2013-02-04 23:27:00,
2013-02-04 18:32:00,45.9,26.3,30.02,West,278,0.0,0.0,46,0.00,,,0.00,Wunderground v.1.15,2013-02-04 23:32:00,
2013-02-04 18:37:00,45.9,26.3,30.02,West,269,0.0,0.0,46,0.00,,,0.00,Wunderground v.1.15,2013-02-04 23:37:00,
2013-02-04 18:43:00,45.8,26.2,30.02,West,269,0.0,0.0,46,0.00,,,0.00,Wunderground v.1.15,2013-02-04 23:43:00,
2013-02-04 18:49:00,45.7,26.1,30.02,West,269,0.0,0.0,46,0.00,,,0.00,Wunderground v.1.15,2013-02-04 23:49:00,
2013-02-04 18:54:00,45.7,26.1,30.02,West,269,0.0,0.0,46,0.00,,,0.00,Wunderground v.1.15,2013-02-04 23:54:00,
2013-02-04 18:59:00,45.6,26.0,30.02,West,269,0.0,0.0,46,0.00,,,0.00,Wunderground v.1.15,2013-02-04 23:59:00,
2013-02-04 19:04:00,45.5,25.9,30.02,West,269,0.0,1.0,46,0.00,,,0.00,Wunderground v.1.15,2013-02-05 00:04:00,
2013-02-04 19:10:00,45.5,26.4,30.03,WNW,294,0.0,0.0,47,0.00,,,0.00,Wunderground v.1.15,2013-02-05 00:10:00,
2013-02-04 19:15:00,45.4,25.8,30.03,WNW,294,0.0,0.0,46,0.00,,,0.00,Wunderground v.1.15,2013-02-05 00:15:00,
2013-02-04 19:21:00,45.4,26.3,30.03,WSW,243,0.0,0.0,47,0.00,,,0.00,Wunderground v.1.15,2013-02-05 00:21:00,
2013-02-04 19:27:00,45.4,25.8,30.02,West,271,0.0,1.0,46,0.00,,,0.00,Wunderground v.1.15,2013-02-05 00:27:00,
2013-02-04 19:32:00,45.4,25.8,30.02,SW,215,0.0,0.0,46,0.00,,,0.00,Wunderground v.1.15,2013-02-05 00:32:00,
2013-02-04 19:38:00,45.3,26.2,30.02,SW,215,0.0,0.0,47,0.00,,,0.00,Wunderground v.1.15,2013-02-05 00:38:00,
2013-02-04 19:43:00,45.3,26.2,30.02,West,269,0.0,0.0,47,0.00,,,0.00,Wunderground v.1.15,2013-02-05 00:43:00,
2013-02-04 19:48:00,45.3,26.2,30.02,West,269,0.0,0.0,47,0.00,,,0.00,Wunderground v.1.15,2013-02-05 00:48:00,
2013-02-04 19:54:00,45.1,26.6,30.03,West,263,0.0,0.0,48,0.00,,,0.00,Wunderground v.1.15,2013-02-05 00:54:00,
2013-02-04 19:59:00,44.9,26.4,30.03,West,260,0.0,0.0,48,0.00,,,0.00,Wunderground v.1.15,2013-02-05 00:59:00,
2013-02-04 20:04:00,44.7,26.7,30.03,West,259,0.0,0.0,49,0.00,,,0.00,Wunderground v.1.15,2013-02-05 01:04:00,
2013-02-04 20:10:00,44.3,26.3,30.03,West,262,0.0,0.0,49,0.00,,,0.00,Wunderground v.1.15,2013-02-05 01:10:00,
2013-02-04 20:15:00,44.1,26.6,30.03,West,262,0.0,0.0,50,0.00,,,0.00,Wunderground v.1.15,2013-02-05 01:15:00,
2013-02-04 20:21:00,44.1,26.6,30.03,West,263,0.0,0.0,50,0.00,,,0.00,Wunderground v.1.15,2013-02-05 01:21:00,
2013-02-04 20:26:00,44.2,26.7,30.03,West,266,0.0,1.0,50,0.00,,,0.00,Wunderground v.1.15,2013-02-05 01:26:00,
2013-02-04 20:31:00,44.1,26.6,30.03,West,266,0.0,0.0,50,0.00,,,0.00,Wunderground v.1.15,2013-02-05 01:31:00,
2013-02-04 20:37:00,44.0,27.0,30.03,West,266,0.0,0.0,51,0.00,,,0.00,Wunderground v.1.15,2013-02-05 01:37:00,
2013-02-04 20:43:00,43.8,27.3,30.03,West,269,0.0,0.0,52,0.00,,,0.00,Wunderground v.1.15,2013-02-05 01:43:00,
2013-02-04 20:48:00,43.8,27.3,30.03,WNW,285,0.0,0.0,52,0.00,,,0.00,Wunderground v.1.15,2013-02-05 01:48:00,
2013-02-04 20:54:00,43.9,27.4,30.03,NW,311,0.0,0.0,52,0.00,,,0.00,Wunderground v.1.15,2013-02-05 01:54:00,
2013-02-04 21:00:00,43.7,27.2,30.03,NW,310,0.0,0.0,52,0.00,,,0.00,Wunderground v.1.15,2013-02-05 02:00:00,
2013-02-04 21:05:00,43.5,27.5,30.03,NW,310,0.0,0.0,53,0.00,,,0.00,Wunderground v.1.15,2013-02-05 02:05:00,
2013-02-04 21:11:00,43.4,27.8,30.03,WNW,283,0.0,0.0,54,0.00,,,0.00,Wunderground v.1.15,2013-02-05 02:11:00,
2013-02-04 21:17:00,43.4,27.4,30.02,NNE,30,0.0,0.0,53,0.00,,,0.00,Wunderground v.1.15,2013-02-05 02:17:00,
2013-02-04 21:23:00,43.5,27.9,30.02,North,6,0.0,0.0,54,0.00,,,0.00,Wunderground v.1.15,2013-02-05 02:23:00,
2013-02-04 21:29:00,43.5,27.9,30.02,West,273,0.0,1.0,54,0.00,,,0.00,Wunderground v.1.15,2013-02-05 02:29:00,
2013-02-04 21:35:00,43.6,28.0,30.02,West,274,0.0,0.0,54,0.00,,,0.00,Wunderground v.1.15,2013-02-05 02:35:00,
2013-02-04 21:41:00,43.6,28.0,30.02,SW,231,0.0,0.0,54,0.00,,,0.00,Wunderground v.1.15,2013-02-05 02:41:00,
2013-02-04 21:46:00,43.6,28.0,30.02,SW,229,0.0,0.0,54,0.00,,,0.00,Wunderground v.1.15,2013-02-05 02:46:00,
2013-02-04 21:52:00,43.7,28.6,30.02,SW,230,0.0,0.0,55,0.00,,,0.00,Wunderground v.1.15,2013-02-05 02:52:00,
2013-02-04 21:57:00,43.6,28.5,30.02,SW,229,0.0,1.0,55,0.00,,,0.00,Wunderground v.1.15,2013-02-05 02:57:00,
2013-02-04 22:02:00,43.4,28.3,30.02,SW,230,0.0,1.0,55,0.00,,,0.00,Wunderground v.1.15,2013-02-05 03:02:00,
2013-02-04 22:08:00,43.0,28.8,30.02,SW,229,0.0,1.0,57,0.00,,,0.00,Wunderground v.1.15,2013-02-05 03:08:00,
2013-02-04 22:13:00,42.7,28.5,30.02,SW,230,0.0,0.0,57,0.00,,,0.00,Wunderground v.1.15,2013-02-05 03:13:00,
2013-02-04 22:18:00,42.3,28.6,30.02,SW,229,0.0,0.0,58,0.00,,,0.00,Wunderground v.1.15,2013-02-05 03:18:00,
2013-02-04 22:24:00,42.0,28.7,30.02,SW,230,0.0,0.0,59,0.00,,,0.00,Wunderground v.1.15,2013-02-05 03:24:00,
2013-02-04 22:29:00,41.7,28.4,30.02,SW,229,0.0,0.0,59,0.00,,,0.00,Wunderground v.1.15,2013-02-05 03:29:00,
2013-02-04 22:34:00,41.4,28.5,30.02,SW,229,0.0,0.0,60,0.00,,,0.00,Wunderground v.1.15,2013-02-05 03:34:00,
2013-02-04 22:40:00,41.2,28.4,30.02,SW,229,0.0,0.0,60,0.00,,,0.00,Wunderground v.1.15,2013-02-05 03:40:00,
2013-02-04 22:45:00,40.9,28.5,30.02,SW,229,0.0,0.0,61,0.00,,,0.00,Wunderground v.1.15,2013-02-05 03:45:00,
2013-02-04 22:51:00,40.7,28.3,30.02,SW,229,0.0,0.0,61,0.00,,,0.00,Wunderground v.1.15,2013-02-05 03:51:00,
2013-02-04 22:57:00,40.6,28.2,30.02,SW,230,0.0,0.0,61,0.00,,,0.00,Wunderground v.1.15,2013-02-05 03:57:00,
2013-02-04 23:03:00,40.7,28.3,30.02,SW,229,0.0,1.0,61,0.00,,,0.00,Wunderground v.1.15,2013-02-05 04:03:00,
2013-02-04 23:08:00,40.7,28.7,30.02,SW,229,0.0,1.0,62,0.00,,,0.00,Wunderground v.1.15,2013-02-05 04:08:00,
2013-02-04 23:14:00,40.4,28.8,30.02,SW,229,0.0,1.0,63,0.00,,,0.00,Wunderground v.1.15,2013-02-05 04:14:00,
2013-02-04 23:20:00,40.2,29.0,30.02,SW,229,0.0,1.0,64,0.00,,,0.00,Wunderground v.1.15,2013-02-05 04:20:00,
2013-02-04 23:25:00,39.9,28.7,30.02,SW,229,0.0,1.0,64,0.00,,,0.00,Wunderground v.1.15,2013-02-05 04:25:00,
2013-02-04 23:31:00,39.6,28.8,30.02,SW,229,0.0,1.0,65,0.00,,,0.00,Wunderground v.1.15,2013-02-05 04:31:00,
2013-02-04 23:36:00,39.3,28.5,30.02,SW,230,0.0,1.0,65,0.00,,,0.00,Wunderground v.1.15,2013-02-05 04:36:00,
2013-02-04 23:42:00,39.0,28.6,30.02,SW,230,0.0,1.0,66,0.00,,,0.00,Wunderground v.1.15,2013-02-05 04:42:00,
2013-02-04 23:48:00,38.8,28.8,30.02,SW,229,0.0,1.0,67,0.00,,,0.00,Wunderground v.1.15,2013-02-05 04:48:00,
2013-02-04 23:54:00,38.5,28.5,30.01,SW,230,0.0,1.0,67,0.00,,,0.00,Wunderground v.1.15,2013-02-05 04:54:00,